Date String (YYYY-MM-DD hh:mm:ss) UTC,Instrument flags,absolute air pressure of the measurement (hPa),sample flow rate (lpm),inlet stack bypass flow (lpm),air temperature of the measurement (°C),ambient temperature measured by the external sensor (°C),aerosol sample conditioner tube jacket temperature (°C),OPC LED temperature (°C),internal box temperature (°C),relative humidity of the measurement (%),span deviation,mass concentration of particles derived from Lorenz-Mie calculation of OPC scattering (μg/m³),mass concentration of particles derived from Lorenz-Mie calculation of OPC scattering (μg/m³),mass concentration of particles derived from Lorenz-Mie calculation of OPC scattering (μg/m³)
DateTimeUTC,F1_M11,P_M11,Q1_M11,Q2_M11,T1_M11,T2_M11,T3_M11,T4_M11,T5_M11,U1_M11,ZSPAN_M11,X0_M11,X2_M11,X1_M11
2024-05-11 04:00:00,SystemResetWarning,0833.3,5.00,000.00,025.9,025.3,000.0,034.1,027.6,020.4,0000.0,0006.08,0003.81,0003.54
2024-05-11 04:01:00,SystemResetWarning,0833.2,5.00,000.00,025.9,025.3,000.0,034.1,027.6,020.4,0000.0,0006.20,0003.82,0003.54
2024-05-11 04:02:00,SystemResetWarning,0833.2,5.00,000.00,025.9,025.3,000.0,034.1,027.6,020.4,0000.0,0006.20,0003.82,0003.54
2024-05-11 04:03:00,SystemResetWarning,0833.2,5.01,000.00,025.9,025.3,000.0,034.1,027.6,020.4,0000.0,0006.13,0003.82,0003.54
2024-05-11 04:04:00,SystemResetWarning,0833.2,5.01,000.00,025.9,025.3,000.0,034.1,027.7,020.3,0000.0,0006.16,0003.82,0003.54
2024-05-11 04:05:00,SystemResetWarning,0833.2,5.00,000.00,025.9,025.3,000.0,034.1,027.6,020.3,0000.0,0006.26,0003.82,0003.54
2024-05-11 04:06:00,SystemResetWarning,0833.2,5.00,000.00,025.9,025.3,000.0,034.2,027.7,020.2,0000.0,0006.02,0003.79,0003.52
2024-05-11 04:07:00,SystemResetWarning,0833.2,5.00,000.00,025.9,025.3,000.0,034.2,027.7,020.2,0000.0,0005.85,0003.78,0003.51
2024-05-11 04:08:00,SystemResetWarning,0833.2,5.00,000.00,025.9,025.3,000.0,034.2,027.7,020.2,0000.0,0005.80,0003.77,0003.50
2024-05-11 04:09:00,SystemResetWarning,0833.2,4.99,000.00,025.9,025.3,000.0,034.2,027.7,020.1,0000.0,0005.82,0003.76,0003.50
2024-05-11 04:10:00,SystemResetWarning,0833.2,5.00,000.00,025.9,025.3,000.0,034.2,027.7,020.0,0000.0,0005.96,0003.75,0003.49
2024-05-11 04:11:00,SystemResetWarning,0833.2,5.02,000.00,025.9,025.3,000.0,034.2,027.7,019.9,0000.0,0005.96,0003.75,0003.48
2024-05-11 04:12:00,SystemResetWarning,0833.2,4.99,000.00,025.9,025.3,000.0,034.2,027.7,019.9,0000.0,0005.90,0003.74,0003.47
2024-05-11 04:13:00,SystemResetWarning,0833.2,4.99,000.00,025.9,025.3,000.0,034.2,027.7,019.9,0000.0,0005.78,0003.72,0003.46
2024-05-11 04:14:00,SystemResetWarning,0833.2,4.99,000.00,025.9,025.3,000.0,034.2,027.7,019.8,0000.0,0005.71,0003.69,0003.44
2024-05-11 04:15:00,SystemResetWarning,0833.2,5.00,000.00,025.9,025.3,000.0,034.2,027.7,019.8,0000.0,0005.60,0003.66,0003.42
2024-05-11 04:16:00,SystemResetWarning,0833.2,5.01,000.00,025.9,025.3,000.0,034.2,027.7,019.8,0000.0,0005.46,0003.63,0003.40
2024-05-11 04:17:00,SystemResetWarning,0833.2,5.01,000.00,025.9,025.3,000.0,034.2,027.7,019.8,0000.0,0005.41,0003.62,0003.40
2024-05-11 04:18:00,SystemResetWarning,0833.2,5.00,000.00,025.9,025.3,000.0,034.2,027.7,019.7,0000.0,0005.49,0003.62,0003.39
2024-05-11 04:19:00,SystemResetWarning,0833.2,5.00,000.00,025.9,025.3,000.0,034.2,027.7,019.7,0000.0,0005.67,0003.62,0003.38
2024-05-11 04:20:00,SystemResetWarning,0833.2,5.00,000.00,025.9,025.3,000.0,034.2,027.7,019.7,0000.0,0005.95,0003.66,0003.38
2024-05-11 04:21:00,SystemResetWarning,0833.2,5.00,000.00,025.9,025.3,000.0,034.2,027.7,019.8,0000.0,0005.82,0003.66,0003.38
2024-05-11 04:22:00,SystemResetWarning,0833.1,5.00,000.00,026.0,025.3,000.0,034.2,027.7,019.7,0000.0,0005.79,0003.65,0003.37
2024-05-11 04:23:00,SystemResetWarning,0833.1,5.00,000.00,025.9,025.3,000.0,034.2,027.7,019.6,0000.0,0005.69,0003.62,0003.36
2024-05-11 04:24:00,SystemResetWarning,0833.1,5.00,000.00,025.9,025.3,000.0,034.2,027.7,019.6,0000.0,0005.66,0003.60,0003.36
2024-05-11 04:25:00,SystemResetWarning,0833.2,5.00,000.00,026.0,025.3,000.0,034.2,027.7,019.6,0000.0,0005.77,0003.61,0003.35
2024-05-11 04:26:00,SystemResetWarning,0833.2,5.00,000.00,026.0,025.3,000.0,034.2,027.7,019.6,0000.0,0005.91,0003.64,0003.35
2024-05-11 04:27:00,SystemResetWarning,0833.0,5.00,000.00,026.0,025.3,000.0,034.2,027.7,019.6,0000.0,0005.91,0003.63,0003.35
2024-05-11 04:28:00,SystemResetWarning,0833.1,5.00,000.00,026.0,025.3,000.0,034.2,027.7,019.5,0000.0,0005.91,0003.63,0003.34
2024-05-11 04:29:00,SystemResetWarning,0833.0,5.00,000.00,025.9,025.3,000.0,034.2,027.7,019.6,0000.0,0005.76,0003.60,0003.32
2024-05-11 04:30:00,SystemResetWarning,0833.2,5.00,000.00,025.9,025.3,000.0,034.2,027.7,019.6,0000.0,0005.45,0003.57,0003.32
2024-05-11 04:31:00,SystemResetWarning,0833.3,5.00,000.00,025.9,025.3,000.0,034.2,027.7,019.5,0000.0,0005.12,0003.52,0003.32
2024-05-11 04:32:00,SystemResetWarning,0833.1,5.00,000.00,025.9,025.3,000.0,034.2,027.7,019.5,0000.0,0005.13,0003.53,0003.31
2024-05-11 04:33:00,SystemResetWarning,0832.9,5.00,000.00,025.9,025.3,000.0,034.2,027.7,019.5,0000.0,0005.06,0003.53,0003.30
2024-05-11 04:34:00,SystemResetWarning,0833.0,5.00,000.00,025.9,025.3,000.0,034.2,027.7,019.5,0000.0,0005.13,0003.54,0003.31
2024-05-11 04:35:00,SystemResetWarning,0832.9,4.99,000.00,026.0,025.3,000.0,034.2,027.7,019.4,0000.0,0005.27,0003.56,0003.30
2024-05-11 04:36:00,SystemResetWarning,0832.9,5.00,000.00,025.9,025.3,000.0,034.2,027.7,019.4,0000.0,0005.26,0003.55,0003.30
2024-05-11 04:37:00,SystemResetWarning,0832.9,5.00,000.00,025.9,025.3,000.0,034.2,027.7,019.4,0000.0,0006.50,0003.53,0003.30
2024-05-11 04:38:00,SystemResetWarning,0833.0,5.00,000.00,025.9,025.3,000.0,034.2,027.7,019.4,0000.0,0006.54,0003.53,0003.30
2024-05-11 04:39:00,SystemResetWarning,0833.3,5.00,000.00,025.9,025.3,000.0,034.2,027.7,019.3,0000.0,0006.60,0003.54,0003.29
2024-05-11 04:40:00,SystemResetWarning,0833.3,5.00,000.00,025.9,025.3,000.0,034.2,027.7,019.3,0000.0,0006.63,0003.54,0003.29
2024-05-11 04:41:00,SystemResetWarning,0833.1,5.00,000.00,025.9,025.3,000.0,034.2,027.7,019.4,0000.0,0006.67,0003.55,0003.29
2024-05-11 04:42:00,SystemResetWarning,0833.1,5.00,000.00,025.9,025.3,000.0,034.2,027.7,019.4,0000.0,0006.86,0003.55,0003.28
2024-05-11 04:43:00,SystemResetWarning,0833.2,5.00,000.00,025.9,025.3,000.0,034.2,027.7,019.3,0000.0,0006.88,0003.54,0003.27
2024-05-11 04:44:00,SystemResetWarning,0832.8,5.01,000.00,025.9,025.3,000.0,034.2,027.7,019.3,0000.0,0007.00,0003.54,0003.27
2024-05-11 04:45:00,SystemResetWarning,0833.0,5.01,000.00,025.9,025.3,000.0,034.2,027.7,019.3,0000.0,0007.01,0003.53,0003.26
2024-05-11 04:46:00,SystemResetWarning,0832.7,5.00,000.00,025.9,025.3,000.0,034.2,027.7,019.2,0000.0,0006.83,0003.50,0003.26
2024-05-11 04:47:00,SystemResetWarning,0832.8,4.99,000.00,025.9,025.3,000.0,034.2,027.7,019.3,0000.0,0006.78,0003.50,0003.27
2024-05-11 04:48:00,SystemResetWarning,0832.8,5.00,000.00,025.9,025.3,000.0,034.2,027.7,019.2,0000.0,0005.44,0003.50,0003.26
2024-05-11 04:49:00,SystemResetWarning,0832.8,5.01,000.00,025.9,025.3,000.0,034.2,027.7,019.2,0000.0,0005.29,0003.50,0003.26
2024-05-11 04:50:00,SystemResetWarning,0832.7,5.01,000.00,025.9,025.3,000.0,034.2,027.7,019.2,0000.0,0005.52,0003.51,0003.26
2024-05-11 04:51:00,SystemResetWarning,0832.7,4.98,000.00,025.9,025.3,000.0,034.2,027.7,019.1,0000.0,0005.64,0003.52,0003.26
2024-05-11 04:52:00,SystemResetWarning,0832.7,4.99,000.00,025.9,025.3,000.0,034.2,027.7,019.1,0000.0,0005.65,0003.51,0003.26
2024-05-11 04:53:00,SystemResetWarning,0832.7,5.01,000.00,025.9,025.3,000.0,034.2,027.7,019.2,0000.0,0005.47,0003.49,0003.26
2024-05-11 04:54:00,SystemResetWarning,0832.7,5.01,000.00,025.9,025.3,000.0,034.2,027.7,019.1,0000.0,0005.45,0003.49,0003.26
2024-05-11 04:55:00,SystemResetWarning,0832.7,5.00,000.00,025.9,025.3,000.0,034.2,027.7,019.2,0000.0,0005.31,0003.47,0003.26
2024-05-11 04:56:00,SystemResetWarning,0832.7,5.00,000.00,025.9,025.3,000.0,034.2,027.7,019.1,0000.0,0005.25,0003.46,0003.25
2024-05-11 04:57:00,SystemResetWarning,0832.7,4.99,000.00,025.9,025.3,000.0,034.2,027.7,019.1,0000.0,0005.25,0003.46,0003.25
2024-05-11 04:58:00,SystemResetWarning,0832.7,4.99,000.00,025.9,025.3,000.0,034.2,027.7,019.1,0000.0,0005.24,0003.45,0003.24
2024-05-11 04:59:00,SystemResetWarning,0832.7,4.99,000.00,025.9,025.2,000.0,034.2,027.7,019.1,0000.0,0005.29,0003.46,0003.23
